Eau Claire, WI

7:06 AM CDT on September 26, 2017 (GMT -0500)
Chippewa Valley Regional

Weather History for KEAU - May, 2013

Change the Weather History Date:

Tuesday, May 21, 2013

  Actual Average Record
Temperature  
Mean Temperature 63 °F 59 °F  
Max Temperature 70 °F 71 °F 89 °F (1964)
Min Temperature 56 °F 47 °F 31 °F (1997)
Degree Days  
Heating Degree Days 2 7  
Month to date heating degree days 231 199  
Since 1 July heating degree days 8160 7839  
Cooling Degree Days 0 1  
Month to date cooling degree days 17 15  
Year to date cooling degree days 20 19  
Growing Degree Days 13 (Base 50)    
Moisture  
Dew Point 57 °F    
Average Humidity 81    
Maximum Humidity 100    
Minimum Humidity 61    
Precipitation  
Precipitation 1.08 in 0.11 in 1.62 in (2001)
Month to date precipitation 6.10 2.29  
Year to date precipitation 16.87 8.47  
Snow  
Snow 0.00 in 0.00 in 0.00 in ()
Month to date snowfall 9.3 0.2  
Since 1 July snowfall 84.3 47.0  
Snow Depth 0.00 in    
Sea Level Pressure  
Sea Level Pressure 29.60 in    
Wind  
Wind Speed 6 mph (WNW)    
Max Wind Speed 20 mph    
Max Gust Speed 26 mph    
Visibility 9 miles    
Events Rain , Thunderstorm    
T = Trace of Precipitation, MM = Missing Value Source: NWS Daily Summary

Daily Weather History Graph

Daily Weather History Graph

Search for Another Location

Airport or City:

Trip Planner

Search our weather history database for the weather conditions in past years. The results will help you decide how hot, cold, wet, or windy it might be!

Date:

Astronomy

May. 21, 2013 Rise Set
Actual Time 5:30 AM CDT 8:34 PM CDT
Civil Twilight 4:56 AM CDT 9:09 PM CDT
Nautical Twilight 4:11 AM CDT 9:54 PM CDT
Astronomical Twilight 3:17 AM CDT 10:49 PM CDT
Moon 4:40 PM CDT (5/21) 3:09 AM CDT (5/21)
Length of Visible Light 16h 13m
Length of Day
15h 03m
Waxing Gibbous, 84% of the Moon is Illuminated
May 21
Waxing Gibbous
May 24
Full
May 31
Last Quarter
Jun 8
New
Jun 16
First Quarter

Hourly Weather History & Observations

Time (CDT) Temp. Dew Point Humidity Pressure Visibility Wind Dir Wind Speed Gust Speed Precip Events Conditions
12:46 AM 62.6 °F 57.2 °F 82% 29.55 in 10.0 mi NNE 4.6 mph - 0.00 in Rain , Thunderstorm Light Rain
12:56 AM 61.0 °F 57.9 °F 90% 29.56 in 5.0 mi West 12.7 mph - 0.08 in Rain , Thunderstorm Heavy Thunderstorms and Rain
1:00 AM 62.6 °F 57.2 °F 82% 29.56 in 1.5 mi Variable 4.6 mph - 0.27 in Rain , Thunderstorm Heavy Thunderstorms and Rain
1:10 AM 62.6 °F 59.0 °F 88% 29.57 in 3.0 mi North 4.6 mph - 0.33 in Rain , Thunderstorm Light Thunderstorms and Rain
1:27 AM 60.8 °F 57.2 °F 88% 29.60 in 3.0 mi WSW 12.7 mph 26.5 mph 0.54 in Rain , Thunderstorm Heavy Thunderstorms and Rain
1:35 AM 60.8 °F 57.2 °F 88% 29.60 in 2.0 mi WSW 11.5 mph - 0.70 in Rain , Thunderstorm Heavy Thunderstorms and Rain
1:44 AM 59.0 °F 57.2 °F 94% 29.60 in 3.0 mi WSW 5.8 mph - 0.76 in Rain , Thunderstorm Heavy Rain
1:56 AM 59.0 °F 57.9 °F 96% 29.58 in 5.0 mi WNW 3.5 mph - 0.79 in Rain , Thunderstorm Rain
2:14 AM 59.0 °F 57.2 °F 94% 29.59 in 3.0 mi Calm Calm - 0.10 in Rain Heavy Rain
2:56 AM 57.9 °F 57.0 °F 97% 29.56 in 9.0 mi East 5.8 mph - 0.20 in Rain Light Rain
3:56 AM 57.9 °F 57.9 °F 100% 29.54 in 10.0 mi ENE 3.5 mph - 0.05 in Rain Light Rain
4:56 AM 57.9 °F 57.0 °F 97% 29.55 in 10.0 mi South 4.6 mph - 0.00 in   Overcast
5:17 AM 57.2 °F 57.2 °F 100% 29.56 in 10.0 mi Calm Calm - N/A   Overcast
5:56 AM 57.9 °F 57.0 °F 97% 29.56 in 10.0 mi NE 4.6 mph - 0.01 in   Overcast
6:56 AM 59.0 °F 57.9 °F 96% 29.57 in 10.0 mi ENE 4.6 mph - 0.00 in Rain Light Rain
7:42 AM 60.8 °F 59.0 °F 94% 29.57 in 10.0 mi ENE 6.9 mph - 0.00 in   Overcast
7:56 AM 61.0 °F 59.0 °F 93% 29.56 in 10.0 mi East 6.9 mph - 0.00 in   Overcast
8:56 AM 62.1 °F 59.0 °F 90% 29.57 in 10.0 mi ESE 6.9 mph - N/A   Overcast
9:11 AM 62.6 °F 60.8 °F 94% 29.58 in 10.0 mi ESE 5.8 mph - N/A   Overcast
9:56 AM 62.1 °F 60.1 °F 93% 29.57 in 10.0 mi ESE 5.8 mph - N/A   Overcast
10:51 AM 62.6 °F 60.8 °F 94% 29.57 in 10.0 mi Calm Calm - 0.00 in Rain Light Rain
10:52 AM 63.0 °F 61.0 °F 93% 29.57 in 10.0 mi Calm Calm - 0.00 in Rain Light Rain
11:56 AM 64.0 °F 60.1 °F 87% 29.58 in 10.0 mi South 5.8 mph - 0.00 in   Overcast
12:56 PM 69.1 °F 60.1 °F 73% 29.57 in 10.0 mi SSE 4.6 mph - N/A   Mostly Cloudy
1:56 PM 69.1 °F 59.0 °F 70% 29.58 in 10.0 mi SW 4.6 mph - N/A   Overcast
2:56 PM 64.0 °F 60.1 °F 87% 29.60 in 10.0 mi SW 3.5 mph - 0.02 in   Overcast
3:56 PM 66.9 °F 59.0 °F 76% 29.60 in 10.0 mi WSW 11.5 mph - 0.01 in   Overcast
4:06 PM 66.2 °F 57.2 °F 73% 29.61 in 10.0 mi SW 11.5 mph - N/A   Overcast
4:18 PM 69.8 °F 57.2 °F 64% 29.61 in 10.0 mi SW 10.4 mph - N/A   Mostly Cloudy
4:56 PM 69.1 °F 55.9 °F 63% 29.62 in 10.0 mi WSW 13.8 mph - N/A   Overcast
5:56 PM 66.0 °F 54.0 °F 65% 29.63 in 10.0 mi WSW 10.4 mph - N/A   Overcast
6:56 PM 64.9 °F 54.0 °F 68% 29.64 in 10.0 mi SW 6.9 mph - N/A   Overcast
7:56 PM 63.0 °F 54.0 °F 72% 29.65 in 10.0 mi West 4.6 mph - N/A   Overcast
8:56 PM 62.1 °F 54.0 °F 75% 29.68 in 10.0 mi Calm Calm - N/A   Overcast
9:56 PM 60.1 °F 57.0 °F 90% 29.68 in 10.0 mi North 4.6 mph - N/A   Overcast
10:22 PM 59.0 °F 55.4 °F 88% 29.69 in 10.0 mi North 6.9 mph - N/A   Overcast
10:39 PM 59.0 °F 55.4 °F 88% 29.68 in 10.0 mi NNE 5.8 mph - N/A   Overcast
10:47 PM 57.2 °F 55.4 °F 94% 29.68 in 10.0 mi North 5.8 mph - N/A   Overcast
10:56 PM 57.9 °F 55.9 °F 93% 29.68 in 10.0 mi North 5.8 mph - N/A   Overcast
11:12 PM 57.2 °F 55.4 °F 94% 29.68 in 10.0 mi North 3.5 mph - N/A   Overcast
11:56 PM 57.0 °F 54.0 °F 89% 29.67 in 10.0 mi NNE 4.6 mph - N/A   Overcast